This is the latest recevied weather packets stored in our database for station/object K3TLB-13. If no packets are shown the sender has not sent any weather packets the latest 10 day(s).
| Time | Temp. | Humidity | Pressure | Rain* | Wind** | Luminosity | Snow |
|---|---|---|---|---|---|---|---|
| 1777583058 | 14.44° C | 57% | 1009.8 hPa | 0 mm | - | - | - |
| 1777582758 | 14.44° C | 57% | 1009.7 hPa | 0 mm | - | - | - |
| 1777582458 | 15° C | 56% | 1009.6 hPa | 0 mm | - | - | - |
| 1777582158 | 15° C | 56% | 1009.4 hPa | 0 mm | - | - | - |
| 1777581858 | 15° C | 54% | 1009.4 hPa | 0 mm | - | - | - |
| 1777581558 | 15° C | 55% | 1009.4 hPa | 0 mm | - | - | - |
| 1777581258 | 15.56° C | 53% | 1009.4 hPa | 0 mm | - | - | - |
| 1777580958 | 16.11° C | 55% | 1009.3 hPa | 0 mm | - | - | - |
| 1777580658 | 16.11° C | 52% | 1009.2 hPa | 0 mm | - | - | - |
| 1777580359 | 15.56° C | 51% | 1009.1 hPa | 0 mm | - | - | - |
| 1777580058 | 16.11° C | 51% | 1009.1 hPa | 0 mm | - | - | - |
| 1777579758 | 16.11° C | 51% | 1009.1 hPa | 0 mm | - | - | - |
| 1777579458 | 16.11° C | 50% | 1009 hPa | 0 mm | - | - | - |
| 1777579158 | 16.67° C | 51% | 1009 hPa | 0 mm | - | - | - |
| 1777578861 | 16.67° C | 51% | 1008.9 hPa | 0 mm | - | - | - |
| 1777578558 | 17.22° C | 49% | 1008.7 hPa | 0 mm | - | - | - |
| 1777578258 | 17.22° C | 52% | 1008.7 hPa | 0 mm | - | - | - |
| 1777577958 | 16.67° C | 54% | 1008.5 hPa | 0 mm | - | - | - |
| 1777577658 | 16.67° C | 51% | 1008.6 hPa | 0 mm | - | - | - |
| 1777577359 | 16.67° C | 48% | 1008.4 hPa | 0 mm | - | - | - |
| 1777577058 | 16.67° C | 43% | 1008.3 hPa | 0 mm | - | - | - |
| 1777576767 | 17.22° C | 45% | 1008.3 hPa | 0 mm | - | - | - |
| 1777576458 | 17.22° C | 48% | 1008.3 hPa | 0 mm | - | - | - |
| 1777576158 | 17.22° C | 44% | 1008.4 hPa | 0 mm | - | - | - |
| 1777575860 | 17.22° C | 46% | 1008.3 hPa | 0 mm | - | - | - |
* Rain latest hour (hover to see other rain measurements)
** Current wind speed in m/s (hover to see current wind gust speed)